AAL930 SBGR-KMIA

Flight info

Callsign AAL930
Flight time N/A
Altitude 34000
Route GERTU UL304 OPNUS UM417 KONKI UL304 BRUTI UM417 ISUNU UM409 BIVUT/N0487F360 UM409 VUMPI UL795 ALTIB UM779 ZEUSS VIICE2
Aircraft B77W/H-SDE1E2E3FGHIJ2J3J4J5M1RWXY/LB1D1

Departure

Time 2026-05-03 20:54
Airport São Paulo/Guarulhos–Governor André Franco Montoro International Airport (SBGR)

Arrival

Time N/A
Airport Miami International Airport (KMIA)
Time Latitude Longitude Altitude Speed Heading
2026-05-03 20:25 -23.42581 -46.47313 2453 ft 0 kts 252°
2026-05-03 20:39 -23.42577 -46.47301 2453 ft 2 kts 252°
2026-05-03 20:39 -23.42573 -46.47286 2453 ft 2 kts 252°
2026-05-03 20:40 -23.42570 -46.47276 2453 ft 2 kts 251°
2026-05-03 20:40 -23.42564 -46.47261 2453 ft 2 kts 236°
2026-05-03 20:40 -23.42555 -46.47248 2453 ft 2 kts 223°
2026-05-03 20:40 -23.42543 -46.47239 2453 ft 2 kts 211°
2026-05-03 20:41 -23.42530 -46.47232 2453 ft 2 kts 199°
2026-05-03 20:41 -23.42516 -46.47228 2453 ft 2 kts 186°
2026-05-03 20:41 -23.42501 -46.47227 2453 ft 2 kts 174°
2026-05-03 20:41 -23.42489 -46.47229 2453 ft 0 kts 163°
2026-05-03 20:42 -23.42486 -46.47230 2453 ft 0 kts 162°
2026-05-03 20:44 -23.42488 -46.47230 2453 ft 1 kts 162°
2026-05-03 20:45 -23.42505 -46.47224 2453 ft 4 kts 163°
2026-05-03 20:45 -23.42545 -46.47212 2453 ft 7 kts 166°
2026-05-03 20:45 -23.42608 -46.47195 2453 ft 10 kts 166°
2026-05-03 20:45 -23.42684 -46.47172 2453 ft 10 kts 163°
2026-05-03 20:46 -23.42750 -46.47151 2453 ft 9 kts 162°
2026-05-03 20:46 -23.42810 -46.47139 2453 ft 8 kts 192°
2026-05-03 20:46 -23.42857 -46.47181 2453 ft 9 kts 240°
2026-05-03 20:46 -23.42881 -46.47252 2453 ft 11 kts 252°
2026-05-03 20:47 -23.42908 -46.47352 2453 ft 15 kts 253°
2026-05-03 20:47 -23.42940 -46.47475 2453 ft 18 kts 254°
2026-05-03 20:47 -23.42979 -46.47622 2452 ft 21 kts 253°
2026-05-03 20:47 -23.43021 -46.47774 2452 ft 19 kts 253°
2026-05-03 20:48 -23.43055 -46.47899 2452 ft 14 kts 253°
2026-05-03 20:48 -23.43081 -46.47998 2452 ft 12 kts 253°
2026-05-03 20:48 -23.43105 -46.48084 2452 ft 11 kts 253°
2026-05-03 20:48 -23.43127 -46.48164 2452 ft 10 kts 253°
2026-05-03 20:49 -23.43144 -46.48228 2452 ft 12 kts 254°
2026-05-03 20:49 -23.43165 -46.48309 2452 ft 14 kts 254°
2026-05-03 20:49 -23.43203 -46.48378 2452 ft 9 kts 206°
2026-05-03 20:49 -23.43263 -46.48380 2452 ft 7 kts 166°
2026-05-03 20:50 -23.43281 -46.48373 2452 ft 0 kts 161°
2026-05-03 20:51 -23.43300 -46.48367 2452 ft 4 kts 161°
2026-05-03 20:51 -23.43341 -46.48353 2452 ft 6 kts 163°
2026-05-03 20:51 -23.43384 -46.48339 2452 ft 6 kts 161°
2026-05-03 20:51 -23.43409 -46.48314 2452 ft 1 kts 115°
2026-05-03 20:52 -23.43411 -46.48309 2452 ft 3 kts 110°
2026-05-03 20:52 -23.43414 -46.48295 2452 ft 3 kts 93°
2026-05-03 20:52 -23.43407 -46.48246 2452 ft 8 kts 75°
2026-05-03 20:52 -23.43385 -46.48167 2452 ft 15 kts 73°
2026-05-03 20:53 -23.43320 -46.47922 2452 ft 58 kts 73°
2026-05-03 20:53 -23.43150 -46.47305 2453 ft 110 kts 74°
2026-05-03 20:53 -23.42890 -46.46333 2454 ft 159 kts 73°
2026-05-03 20:53 -23.42530 -46.45014 2623 ft 195 kts 75°
2026-05-03 20:54 -23.42257 -46.44084 3067 ft 199 kts 73°
2026-05-03 20:54 -23.41269 -46.40823 4658 ft 202 kts 75°
2026-05-03 20:54 -23.40864 -46.39299 4929 ft 222 kts 71°
2026-05-03 20:55 -23.40350 -46.37635 5184 ft 244 kts 72°
2026-05-03 20:55 -23.39719 -46.35819 5572 ft 261 kts 59°
2026-05-03 20:55 -23.38780 -46.34163 6396 ft 262 kts 57°
2026-05-03 20:55 -23.37788 -46.32468 7133 ft 268 kts 57°
2026-05-03 20:56 -23.36788 -46.30749 7744 ft 277 kts 57°
2026-05-03 20:56 -23.35754 -46.28963 8406 ft 284 kts 57°
2026-05-03 20:56 -23.34687 -46.27122 9076 ft 290 kts 56°
2026-05-03 20:56 -23.33596 -46.25239 9721 ft 297 kts 56°
2026-05-03 20:57 -23.32489 -46.23329 10348 ft 305 kts 56°
2026-05-03 20:57 -23.31330 -46.21333 10731 ft 322 kts 56°
2026-05-03 20:57 -23.30102 -46.19218 11105 ft 339 kts 56°
2026-05-03 20:57 -23.28806 -46.16986 11489 ft 356 kts 57°
2026-05-03 20:58 -23.27467 -46.14680 11881 ft 372 kts 57°
2026-05-03 20:58 -23.26045 -46.12233 12278 ft 389 kts 57°
2026-05-03 20:58 -23.24592 -46.09734 12775 ft 400 kts 57°
2026-05-03 20:58 -23.23025 -46.07239 13448 ft 405 kts 50°
2026-05-03 20:59 -23.21054 -46.05041 14130 ft 408 kts 38°
2026-05-03 20:59 -23.18723 -46.03253 14801 ft 411 kts 27°
2026-05-03 20:59 -23.16099 -46.01936 15444 ft 415 kts 17°
2026-05-03 20:59 -23.13337 -46.01165 16094 ft 416 kts
2026-05-03 21:00 -23.10421 -46.00932 16726 ft 417 kts 355°
2026-05-03 21:00 -23.09464 -46.00982 16938 ft 417 kts 352°
2026-05-03 21:00 -23.04796 -46.02152 18004 ft 416 kts 334°
2026-05-03 21:00 -23.02208 -46.03561 18628 ft 415 kts 323°
2026-05-03 21:01 -22.99897 -46.05456 19328 ft 412 kts 313°
2026-05-03 21:01 -22.97990 -46.07717 20032 ft 408 kts 302°
2026-05-03 21:01 -22.96505 -46.10303 20734 ft 404 kts 292°
2026-05-03 21:01 -22.95489 -46.13140 21385 ft 403 kts 282°
2026-05-03 21:02 -22.94970 -46.16082 22024 ft 402 kts 276°
2026-05-03 21:02 -22.94381 -46.19033 22715 ft 404 kts 283°
2026-05-03 21:02 -22.93406 -46.21930 23354 ft 408 kts 290°
2026-05-03 21:02 -22.92134 -46.24683 23938 ft 412 kts 295°
2026-05-03 21:03 -22.90693 -46.27327 24540 ft 414 kts 296°
2026-05-03 21:03 -22.89383 -46.30125 25110 ft 413 kts 290°
2026-05-03 21:03 -22.88236 -46.32984 25635 ft 415 kts 290°
2026-05-03 21:03 -22.87081 -46.35842 26228 ft 416 kts 290°
2026-05-03 21:04 -22.85898 -46.38683 26837 ft 416 kts 291°
2026-05-03 21:04 -22.84693 -46.41522 27371 ft 418 kts 291°
2026-05-03 21:04 -22.83466 -46.44367 27879 ft 420 kts 292°
2026-05-03 21:04 -22.82207 -46.47257 28346 ft 423 kts 292°
2026-05-03 21:05 -22.81382 -46.49138 28643 ft 424 kts 292°
2026-05-03 21:05 -22.79684 -46.52987 29375 ft 425 kts 292°
2026-05-03 21:05 -22.78401 -46.55881 29918 ft 426 kts 292°
2026-05-03 21:05 -22.77111 -46.58782 30470 ft 427 kts 292°
2026-05-03 21:06 -22.75835 -46.61646 31042 ft 426 kts 292°
2026-05-03 21:06 -22.74542 -46.64541 31651 ft 425 kts 292°
2026-05-03 21:06 -22.73251 -46.67429 32271 ft 422 kts 293°
2026-05-03 21:06 -22.71984 -46.70258 32905 ft 419 kts 292°
2026-05-03 21:07 -22.70696 -46.73135 33507 ft 417 kts 293°
2026-05-03 21:07 -22.69424 -46.75971 34025 ft 416 kts 292°
2026-05-03 21:07 -22.68158 -46.78795 34162 ft 420 kts 292°
2026-05-03 21:07 -22.66876 -46.81651 34174 ft 418 kts 292°
2026-05-03 21:08 -22.64328 -46.87300 34163 ft 416 kts 292°
2026-05-03 21:08 -22.61789 -46.92922 34156 ft 418 kts 292°
2026-05-03 21:09 -22.59233 -46.98592 34147 ft 419 kts 292°
2026-05-03 21:09 -22.56695 -47.04220 34141 ft 419 kts 292°
2026-05-03 21:10 -22.54543 -47.10055 34136 ft 417 kts 283°
2026-05-03 21:10 -22.53046 -47.16074 34138 ft 415 kts 283°
2026-05-03 21:11 -22.51553 -47.22093 34137 ft 416 kts 283°
2026-05-03 21:11 -22.50054 -47.28125 34138 ft 415 kts 283°
2026-05-03 21:12 -22.48556 -47.34138 34140 ft 417 kts 283°
2026-05-03 21:12 -22.47053 -47.40155 34132 ft 415 kts 283°
2026-05-03 21:13 -22.45548 -47.46172 34128 ft 417 kts 283°
2026-05-03 21:13 -22.44035 -47.52210 34128 ft 416 kts 283°
2026-05-03 21:14 -22.42524 -47.58235 34128 ft 416 kts 283°
2026-05-03 21:14 -22.41016 -47.64283 34129 ft 416 kts 283°
2026-05-03 21:15 -22.39520 -47.70280 34151 ft 415 kts 283°
2026-05-03 21:15 -22.38021 -47.76288 34160 ft 415 kts 283°
2026-05-03 21:16 -22.36517 -47.82319 34154 ft 415 kts 283°
2026-05-03 21:16 -22.35023 -47.88306 34158 ft 416 kts 283°
2026-05-03 21:17 -22.33772 -47.93321 34158 ft 415 kts 283°
2026-05-03 21:17 -22.32017 -48.00352 34157 ft 416 kts 283°
2026-05-03 21:18 -22.30515 -48.06372 34158 ft 416 kts 283°
2026-05-03 21:18 -22.29009 -48.12407 34153 ft 418 kts 283°
2026-05-03 21:19 -22.27508 -48.18417 34143 ft 417 kts 283°
2026-05-03 21:19 -22.25994 -48.24484 34137 ft 418 kts 283°
2026-05-03 21:20 -22.24746 -48.29480 34134 ft 417 kts 283°
2026-05-03 21:20 -22.22991 -48.36511 34128 ft 417 kts 283°
2026-05-03 21:21 -22.21476 -48.42576 34131 ft 418 kts 283°
2026-05-03 21:21 -22.19972 -48.48596 34125 ft 416 kts 283°
2026-05-03 21:22 -22.18475 -48.54588 34128 ft 416 kts 283°
2026-05-03 21:22 -22.16968 -48.60624 34114 ft 418 kts 283°
2026-05-03 21:23 -22.15458 -48.66668 34120 ft 417 kts 283°
2026-05-03 21:23 -22.13947 -48.72716 34129 ft 417 kts 283°
2026-05-03 21:24 -22.12438 -48.78754 34118 ft 418 kts 283°
2026-05-03 21:24 -22.10929 -48.84790 34112 ft 418 kts 283°
2026-05-03 21:25 -22.09430 -48.90785 34111 ft 418 kts 282°
2026-05-03 21:25 -22.07917 -48.96838 34115 ft 418 kts 282°
2026-05-03 21:26 -22.06412 -49.02860 34112 ft 418 kts 283°
2026-05-03 21:26 -22.04905 -49.08889 34114 ft 418 kts 283°
2026-05-03 21:27 -22.03396 -49.14923 34103 ft 419 kts 283°
2026-05-03 21:27 -22.01880 -49.20987 34092 ft 421 kts 283°
2026-05-03 21:28 -22.00363 -49.27052 34100 ft 419 kts 283°
2026-05-03 21:28 -21.98849 -49.33106 34089 ft 420 kts 283°
2026-05-03 21:29 -21.97326 -49.39192 34088 ft 422 kts 283°
2026-05-03 21:29 -21.95814 -49.45235 34085 ft 420 kts 283°